Time,TemperatureF,DewpointF,PressureIn,WindDirection,WindDirectionDegrees,WindSpeedMPH,WindSpeedGustMPH,Humidity,HourlyPrecipIn,Conditions,Clouds,dailyrainin,SoftwareType,DateUTC
2013-04-16 00:00:00,21.0,-99.9,-100.00,North,349,5.0,7.0,-999,-99.99,,,-99.99,,2013-04-16 06:00:00,
2013-04-16 00:32:00,21.0,-99.9,-100.00,North,349,5.0,7.0,-999,-99.99,,,-99.99,,2013-04-16 06:32:00,
2013-04-16 00:42:00,21.0,-99.9,-100.00,North,349,5.0,7.0,-999,-99.99,,,-99.99,,2013-04-16 06:42:00,
2013-04-16 00:52:00,21.0,-99.9,-100.00,North,349,5.0,7.0,-999,-99.99,,,-99.99,,2013-04-16 06:52:00,
2013-04-16 01:00:00,21.0,-99.9,-100.00,SW,214,0.0,0.0,-999,-99.99,,,-99.99,,2013-04-16 07:00:00,
2013-04-16 01:32:00,21.0,-99.9,-100.00,SW,214,0.0,0.0,-999,-99.99,,,-99.99,,2013-04-16 07:32:00,
2013-04-16 01:42:00,21.0,-99.9,-100.00,SW,214,0.0,0.0,-999,-99.99,,,-99.99,,2013-04-16 07:42:00,
2013-04-16 01:53:00,21.0,-99.9,-100.00,SW,214,0.0,0.0,-999,-99.99,,,-99.99,,2013-04-16 07:53:00,
2013-04-16 02:00:00,22.0,-99.9,-100.00,NNW,347,1.0,3.0,-999,-99.99,,,-99.99,,2013-04-16 08:00:00,
2013-04-16 02:32:00,22.0,-99.9,-100.00,NNW,347,1.0,3.0,-999,-99.99,,,-99.99,,2013-04-16 08:32:00,
2013-04-16 02:42:00,22.0,-99.9,-100.00,NNW,347,1.0,3.0,-999,-99.99,,,-99.99,,2013-04-16 08:42:00,
2013-04-16 02:52:00,22.0,-99.9,-100.00,NNW,347,1.0,3.0,-999,-99.99,,,-99.99,,2013-04-16 08:52:00,
2013-04-16 03:00:00,22.0,-99.9,-100.00,North,5,2.0,3.0,-999,-99.99,,,-99.99,,2013-04-16 09:00:00,
2013-04-16 03:33:00,22.0,-99.9,-100.00,North,5,2.0,3.0,-999,-99.99,,,-99.99,,2013-04-16 09:33:00,
2013-04-16 03:43:00,22.0,-99.9,-100.00,North,5,2.0,3.0,-999,-99.99,,,-99.99,,2013-04-16 09:43:00,
2013-04-16 03:53:00,22.0,-99.9,-100.00,North,5,2.0,3.0,-999,-99.99,,,-99.99,,2013-04-16 09:53:00,
2013-04-16 04:00:00,22.0,-99.9,-100.00,North,3,7.0,8.0,-999,-99.99,,,-99.99,,2013-04-16 10:00:00,
2013-04-16 04:33:00,22.0,-99.9,-100.00,North,3,7.0,8.0,-999,-99.99,,,-99.99,,2013-04-16 10:33:00,
2013-04-16 04:43:00,22.0,-99.9,-100.00,North,3,7.0,8.0,-999,-99.99,,,-99.99,,2013-04-16 10:43:00,
2013-04-16 04:53:00,22.0,-99.9,-100.00,North,3,7.0,8.0,-999,-99.99,,,-99.99,,2013-04-16 10:53:00,
2013-04-16 05:00:00,21.0,-99.9,-100.00,NNW,345,6.0,7.0,-999,-99.99,,,-99.99,,2013-04-16 11:00:00,
2013-04-16 05:32:00,21.0,-99.9,-100.00,NNW,345,6.0,7.0,-999,-99.99,,,-99.99,,2013-04-16 11:32:00,
2013-04-16 05:42:00,21.0,-99.9,-100.00,NNW,345,6.0,7.0,-999,-99.99,,,-99.99,,2013-04-16 11:42:00,
2013-04-16 05:53:00,21.0,-99.9,-100.00,NNW,345,6.0,7.0,-999,-99.99,,,-99.99,,2013-04-16 11:53:00,
2013-04-16 06:00:00,21.0,-99.9,-100.00,NNW,330,7.0,10.0,-999,-99.99,,,-99.99,,2013-04-16 12:00:00,
2013-04-16 06:32:00,21.0,-99.9,-100.00,NNW,330,7.0,10.0,-999,-99.99,,,-99.99,,2013-04-16 12:32:00,
2013-04-16 06:42:00,21.0,-99.9,-100.00,NNW,330,7.0,10.0,-999,-99.99,,,-99.99,,2013-04-16 12:42:00,
2013-04-16 06:52:00,21.0,-99.9,-100.00,NNW,330,7.0,10.0,-999,-99.99,,,-99.99,,2013-04-16 12:52:00,
2013-04-16 07:00:00,22.0,-99.9,-100.00,North,11,7.0,10.0,-999,-99.99,,,-99.99,,2013-04-16 13:00:00,
2013-04-16 07:32:00,22.0,-99.9,-100.00,North,11,7.0,10.0,-999,-99.99,,,-99.99,,2013-04-16 13:32:00,
2013-04-16 07:42:00,22.0,-99.9,-100.00,North,11,7.0,10.0,-999,-99.99,,,-99.99,,2013-04-16 13:42:00,
2013-04-16 07:52:00,22.0,-99.9,-100.00,North,11,7.0,10.0,-999,-99.99,,,-99.99,,2013-04-16 13:52:00,
2013-04-16 08:00:00,21.0,-99.9,-100.00,NNE,19,15.0,17.0,-999,-99.99,,,-99.99,,2013-04-16 14:00:00,
2013-04-16 08:32:00,21.0,-99.9,-100.00,NNE,19,15.0,17.0,-999,-99.99,,,-99.99,,2013-04-16 14:32:00,
2013-04-16 08:42:00,21.0,-99.9,-100.00,NNE,19,15.0,17.0,-999,-99.99,,,-99.99,,2013-04-16 14:42:00,
2013-04-16 08:52:00,21.0,-99.9,-100.00,NNE,19,15.0,17.0,-999,-99.99,,,-99.99,,2013-04-16 14:52:00,
2013-04-16 09:00:00,22.0,-99.9,-100.00,NNE,16,14.0,18.0,-999,-99.99,,,-99.99,,2013-04-16 15:00:00,
2013-04-16 09:33:00,22.0,-99.9,-100.00,NNE,16,14.0,18.0,-999,-99.99,,,-99.99,,2013-04-16 15:33:00,
2013-04-16 09:43:00,22.0,-99.9,-100.00,NNE,16,14.0,18.0,-999,-99.99,,,-99.99,,2013-04-16 15:43:00,
2013-04-16 09:53:00,22.0,-99.9,-100.00,NNE,16,14.0,18.0,-999,-99.99,,,-99.99,,2013-04-16 15:53:00,
2013-04-16 10:00:00,23.0,-99.9,-100.00,NNE,22,16.0,20.0,-999,-99.99,,,-99.99,,2013-04-16 16:00:00,
2013-04-16 10:33:00,23.0,-99.9,-100.00,NNE,22,16.0,20.0,-999,-99.99,,,-99.99,,2013-04-16 16:33:00,
2013-04-16 10:42:00,23.0,-99.9,-100.00,NNE,22,16.0,20.0,-999,-99.99,,,-99.99,,2013-04-16 16:42:00,
2013-04-16 10:53:00,23.0,-99.9,-100.00,NNE,22,16.0,20.0,-999,-99.99,,,-99.99,,2013-04-16 16:53:00,
2013-04-16 11:00:00,24.0,-99.9,-100.00,NNE,21,14.0,17.0,-999,-99.99,,,-99.99,,2013-04-16 17:00:00,
2013-04-16 11:33:00,24.0,-99.9,-100.00,NNE,21,14.0,17.0,-999,-99.99,,,-99.99,,2013-04-16 17:33:00,
2013-04-16 11:44:00,24.0,-99.9,-100.00,NNE,21,14.0,17.0,-999,-99.99,,,-99.99,,2013-04-16 17:44:00,
2013-04-16 11:53:00,24.0,-99.9,-100.00,NNE,21,14.0,17.0,-999,-99.99,,,-99.99,,2013-04-16 17:53:00,
2013-04-16 12:00:00,24.0,-99.9,-100.00,NE,36,15.0,19.0,-999,-99.99,,,-99.99,,2013-04-16 18:00:00,
2013-04-16 12:32:00,24.0,-99.9,-100.00,NE,36,15.0,19.0,-999,-99.99,,,-99.99,,2013-04-16 18:32:00,
2013-04-16 12:43:00,24.0,-99.9,-100.00,NE,36,15.0,19.0,-999,-99.99,,,-99.99,,2013-04-16 18:43:00,
2013-04-16 12:52:00,24.0,-99.9,-100.00,NE,36,15.0,19.0,-999,-99.99,,,-99.99,,2013-04-16 18:52:00,
2013-04-16 13:00:00,24.0,-99.9,-100.00,NNE,29,17.0,21.0,-999,-99.99,,,-99.99,,2013-04-16 19:00:00,
2013-04-16 13:32:00,24.0,-99.9,-100.00,NNE,29,17.0,21.0,-999,-99.99,,,-99.99,,2013-04-16 19:32:00,
2013-04-16 13:43:00,24.0,-99.9,-100.00,NNE,29,17.0,21.0,-999,-99.99,,,-99.99,,2013-04-16 19:43:00,
2013-04-16 13:52:00,24.0,-99.9,-100.00,NNE,29,17.0,21.0,-999,-99.99,,,-99.99,,2013-04-16 19:52:00,
2013-04-16 14:00:00,24.0,-99.9,-100.00,NE,37,14.0,17.0,-999,-99.99,,,-99.99,,2013-04-16 20:00:00,
2013-04-16 14:32:00,24.0,-99.9,-100.00,NE,37,14.0,17.0,-999,-99.99,,,-99.99,,2013-04-16 20:32:00,
2013-04-16 14:42:00,24.0,-99.9,-100.00,NE,37,14.0,17.0,-999,-99.99,,,-99.99,,2013-04-16 20:42:00,
2013-04-16 14:52:00,24.0,-99.9,-100.00,NE,37,14.0,17.0,-999,-99.99,,,-99.99,,2013-04-16 20:52:00,
2013-04-16 15:00:00,27.0,-99.9,-100.00,NNE,28,15.0,20.0,-999,-99.99,,,-99.99,,2013-04-16 21:00:00,
2013-04-16 15:33:00,27.0,-99.9,-100.00,NNE,28,15.0,20.0,-999,-99.99,,,-99.99,,2013-04-16 21:33:00,
2013-04-16 15:43:00,27.0,-99.9,-100.00,NNE,28,15.0,20.0,-999,-99.99,,,-99.99,,2013-04-16 21:43:00,
2013-04-16 15:53:00,27.0,-99.9,-100.00,NNE,28,15.0,20.0,-999,-99.99,,,-99.99,,2013-04-16 21:53:00,
2013-04-16 16:00:00,26.0,-99.9,-100.00,NNE,33,14.0,18.0,-999,-99.99,,,-99.99,,2013-04-16 22:00:00,
2013-04-16 16:33:00,26.0,-99.9,-100.00,NNE,33,14.0,18.0,-999,-99.99,,,-99.99,,2013-04-16 22:33:00,
2013-04-16 16:43:00,26.0,-99.9,-100.00,NNE,33,14.0,18.0,-999,-99.99,,,-99.99,,2013-04-16 22:43:00,
2013-04-16 16:52:00,26.0,-99.9,-100.00,NNE,33,14.0,18.0,-999,-99.99,,,-99.99,,2013-04-16 22:52:00,
2013-04-16 17:00:00,26.0,-99.9,-100.00,NE,35,15.0,18.0,-999,-99.99,,,-99.99,,2013-04-16 23:00:00,
2013-04-16 17:32:00,26.0,-99.9,-100.00,NE,35,15.0,18.0,-999,-99.99,,,-99.99,,2013-04-16 23:32:00,
2013-04-16 17:43:00,26.0,-99.9,-100.00,NE,35,15.0,18.0,-999,-99.99,,,-99.99,,2013-04-16 23:43:00,
2013-04-16 17:52:00,26.0,-99.9,-100.00,NE,35,15.0,18.0,-999,-99.99,,,-99.99,,2013-04-16 23:52:00,
2013-04-16 18:00:00,26.0,-99.9,-100.00,NE,42,17.0,21.0,-999,-99.99,,,-99.99,,2013-04-17 00:00:00,
2013-04-16 18:32:00,26.0,-99.9,-100.00,NE,42,17.0,21.0,-999,-99.99,,,-99.99,,2013-04-17 00:32:00,
2013-04-16 18:42:00,26.0,-99.9,-100.00,NE,42,17.0,21.0,-999,-99.99,,,-99.99,,2013-04-17 00:42:00,
2013-04-16 18:52:00,26.0,-99.9,-100.00,NE,42,17.0,21.0,-999,-99.99,,,-99.99,,2013-04-17 00:52:00,
2013-04-16 19:00:00,24.0,-99.9,-100.00,NNE,28,12.0,15.0,-999,-99.99,,,-99.99,,2013-04-17 01:00:00,
2013-04-16 19:32:00,24.0,-99.9,-100.00,NNE,28,12.0,15.0,-999,-99.99,,,-99.99,,2013-04-17 01:32:00,
2013-04-16 19:42:00,24.0,-99.9,-100.00,NNE,28,12.0,15.0,-999,-99.99,,,-99.99,,2013-04-17 01:42:00,
2013-04-16 19:52:00,24.0,-99.9,-100.00,NNE,28,12.0,15.0,-999,-99.99,,,-99.99,,2013-04-17 01:52:00,
2013-04-16 20:00:00,23.0,-99.9,-100.00,NNE,22,11.0,13.0,-999,-99.99,,,-99.99,,2013-04-17 02:00:00,
2013-04-16 20:32:00,23.0,-99.9,-100.00,NNE,22,11.0,13.0,-999,-99.99,,,-99.99,,2013-04-17 02:32:00,
2013-04-16 20:42:00,23.0,-99.9,-100.00,NNE,22,11.0,13.0,-999,-99.99,,,-99.99,,2013-04-17 02:42:00,
2013-04-16 20:53:00,23.0,-99.9,-100.00,NNE,22,11.0,13.0,-999,-99.99,,,-99.99,,2013-04-17 02:53:00,
2013-04-16 21:00:00,22.0,-99.9,-100.00,NNE,18,5.0,6.0,-999,-99.99,,,-99.99,,2013-04-17 03:00:00,
2013-04-16 21:33:00,22.0,-99.9,-100.00,NNE,18,5.0,6.0,-999,-99.99,,,-99.99,,2013-04-17 03:33:00,
2013-04-16 21:43:00,22.0,-99.9,-100.00,NNE,18,5.0,6.0,-999,-99.99,,,-99.99,,2013-04-17 03:43:00,
2013-04-16 21:53:00,22.0,-99.9,-100.00,NNE,18,5.0,6.0,-999,-99.99,,,-99.99,,2013-04-17 03:53:00,
2013-04-16 22:00:00,21.0,-99.9,-100.00,NNE,13,6.0,7.0,-999,-99.99,,,-99.99,,2013-04-17 04:00:00,
2013-04-16 22:33:00,21.0,-99.9,-100.00,NNE,13,6.0,7.0,-999,-99.99,,,-99.99,,2013-04-17 04:33:00,
2013-04-16 22:43:00,21.0,-99.9,-100.00,NNE,13,6.0,7.0,-999,-99.99,,,-99.99,,2013-04-17 04:43:00,
2013-04-16 22:53:00,21.0,-99.9,-100.00,NNE,13,6.0,7.0,-999,-99.99,,,-99.99,,2013-04-17 04:53:00,
2013-04-16 23:00:00,20.0,-99.9,-100.00,North,4,5.0,7.0,-999,-99.99,,,-99.99,,2013-04-17 05:00:00,
2013-04-16 23:32:00,20.0,-99.9,-100.00,North,4,5.0,7.0,-999,-99.99,,,-99.99,,2013-04-17 05:32:00,
2013-04-16 23:43:00,20.0,-99.9,-100.00,North,4,5.0,7.0,-999,-99.99,,,-99.99,,2013-04-17 05:43:00,
2013-04-16 23:52:00,20.0,-99.9,-100.00,North,4,5.0,7.0,-999,-99.99,,,-99.99,,2013-04-17 05:52:00,